Overview Statistics Trail Chart Weather Telemetry Raw packets
 

This is the latest recevied weather packets stored in our database for station/object K1RFS. If no packets are shown the sender has not sent any weather packets the latest 10 day(s).

<< 47 48 49 50 51 52 53 >>
Time Temp. Humidity Pressure Rain* Wind** Luminosity Snow
1788366515 23.89° C 36% 1000.7 hPa 0 mm - 41 W/m² -
1788366211 23.33° C 36% 1000.6 hPa 0 mm - 33 W/m² -
1788365910 23.33° C 37% 1001.2 hPa 0 mm - 33 W/m² -
1788365606 23.33° C 37% 1001 hPa 0 mm - 37 W/m² -
1788365302 23.33° C 37% 1000.9 hPa 0 mm - 40 W/m² -
1788364997 22.78° C 40% 1001.4 hPa 0 mm - 32 W/m² -
1788364695 22.22° C 41% 1000.9 hPa 0 mm - 31 W/m² -
1788364394 22.78° C 43% 1000.9 hPa 0 mm - 30 W/m² -
1788364089 22.78° C 40% 1000.9 hPa 0 mm - 36 W/m² -
1788363785 22.78° C 39% 1000.9 hPa 0 mm - 34 W/m² -
1788363484 22.22° C 39% 1001 hPa 0 mm - 32 W/m² -
1788363178 21.67° C 40% 1000.9 hPa 0 mm - 33 W/m² -
1788362874 21.67° C 40% 1001 hPa 0 mm - 27 W/m² -
1788362570 21.67° C 41% 1001 hPa 0 mm - 27 W/m² -
1788362270 21.67° C 41% 1001 hPa 0 mm - 26 W/m² -
1788361966 21.67° C 41% 1001 hPa 0 mm - 25 W/m² -
1788361666 21.11° C 42% 1001.2 hPa 0 mm - 24 W/m² -
1788361362 21.11° C 46% 1000.9 hPa 0 mm - 23 W/m² -
1788361061 20.56° C 50% 1001 hPa 0 mm - 24 W/m² -
1788360756 20.56° C 50% 1000.9 hPa 0 mm - 23 W/m² -
1788360452 20.56° C 51% 1000.9 hPa 0 mm - 26 W/m² -
1788360148 20.56° C 51% 1000.8 hPa 0 mm - 25 W/m² -
1788359837 20.56° C 51% 1000.8 hPa 0 mm - 24 W/m² -
1788359532 20.56° C 51% 1000.7 hPa 0 mm - 24 W/m² -
1788359228 20° C 52% 1000.7 hPa 0 mm - 24 W/m² -

* Rain latest hour (hover to see other rain measurements)
** Current wind speed in m/s (hover to see current wind gust speed)